Casper, WY

10:58 AM MDT on August 30, 2015 (GMT -0600)
Casper Mountain Foothills | | Change Station
CLOSE
Current Station
Personal Weather Station
Location: Casper, WY
Elevation: 5334 ft
Nearby Weather Stations
Active Advisory: Fire Weather Warning

Elev 5334 ft 42.83 °N, 106.31 °W | Updated 3 minutes ago

Partly Cloudy
Partly Cloudy
85.7 °F
Feels Like 82 °F
N
6.0
Wind Variable Wind from West
Gusts 11.0 mph

Today
High -- | Low -- °F
--% Chance of Precip.
Yesterday
High -- | Low -- °F
Precip. -- in
6:27 AM 7:43 PM
Full, 99% visible
Pressure 29.79 in
Visibility 10.0 miles
Clouds Clear
Heat Index 82 °F
Dew Point 34 °F
Humidity 16%
Rainfall 0.00 in
Snow Depth Not available.
UV 7 out of 12
Pollen 10.40 out of 12
Air Quality Not available.
Flu Activity Not available.
METAR KCPR 301653Z 22020G27KT 10SM CLR 31/M01 A3002 RMK AO2 PK WND 21029/1617 SLP087 T03111006
Pressure 29.79 in
Visibility 10.0 miles
Clouds Clear
Heat Index 82 °F
Dew Point 34 °F
Humidity 16%
Rainfall 0.00 in
Snow Depth Not available.
UV 7 out of 12
Pollen 10.40 out of 12
Air Quality Not available.
Flu Activity Not available.
METAR KCPR 301653Z 22020G27KT 10SM CLR 31/M01 A3002 RMK AO2 PK WND 21029/1617 SLP087 T03111006

10-Day Weather Forecast

×

Almanac

Astronomy

Aug. 30, 2015 Rise Set
Actual Time
Civil Twilight
Nautical Twilight
Astronomical Twilight
Moon
Length of Visible Light
Length of Day
Tomorrow will be .
, % of the Moon is Illuminated

Today's Extremes

State Highs State Lows

Community

WunderPhotos

Upload Photos

1,851,008 photos uploaded!

WunderBlogs® & News

Nearby

Air Quality

  Air Quality AQ Index Pollutant
Not available.

Snow Depth

Station Depth Elevation

Earthquake Activity

City Distance Mag. Time & Date
Minimum magnitude displayed is 2.5.

Coastal Water Temperatures

Place Temperature

Stations

Nearby Weather Stations

Station Location Temp. Windchill Dew Point Humidity Wind Precip. Elev Updated Type
                   
Fire Weather Warning
Statement as of 9:25 AM MDT on August 30, 2015

... Red flag warning remains in effect until 9 PM MDT this evening
for gusty wind... low humidity... hot temperatures... and a Haines
index of 6...

* wind... southwest 15 to 25 mph with gusts increasing to around 35
mph by 1800... especially in zones 280... 289... and 300.

* Maximum temperatures... 88 to 93.

* Humidity... 11 to 15 percent.

* Haines index... 6.

* Thunderstorms... isolated to widely scattered dry thunderstorms.

* Impacts... any fires that develop will likely spread rapidly.
Outdoor burning is not recommended and campfires need to be
out cold.

Precautionary/preparedness actions...

A red flag warning means that critical fire weather conditions
are either occurring now... or will shortly. A combination of
strong winds... low relative humidity... and warm temperatures will
create extreme fire behavior.